Regional Weather Roundup
Issued by NWS Upton, NY

Home | Current Version | Previous Version | Text Only | Print | Product List | Glossary On
Versions: 1 2 3 4 5 6 7 8 9 10 11 12 13 14 15 16 17 18 19 20 21 22 23 24 25 26 27
000
ASUS41 KOKX 131508
RWROKX

REGIONAL WEATHER ROUNDUP
NATIONAL WEATHER SERVICE NEW YORK NY
1000 AM EST WED DEC 13 2017

NOTE: "FAIR" INDICATES FEW OR NO CLOUDS BELOW 12,000 FEET WITH NO
SIGNIFICANT WEATHER AND/OR OBSTRUCTIONS TO VISIBILITY.

NYZ071-072-176-178-NJZ106-104-131600-
NEW YORK CITY METRO AREA

CITY           SKY/WX    TMP DP  RH WIND       PRES   REMARKS
Central Park   PTSUNNY   23   7  50 W15G29    29.58R WCI  10
Bronx Bot Gard   N/A     25   7  46 W21       29.57F WCI  10
Bronx Lehman C   N/A     23   9  54 W12G25      N/A  WCI  12
LaGuardia APRT PTSUNNY   25   8  48 W25G38    29.56S WCI   9
Queens College   N/A     23   7  50 NW14G26     N/A  WCI  11
Kennedy INTL   PTSUNNY   24   6  46 W29G40    29.58R WCI   7
Breezy Point     N/A    N/A N/A N/A W22G35      N/A
Brooklyn Coll    N/A     25   7  46 W29G40      N/A  WCI   8
Staten Island    N/A     25   7  46 W21G32      N/A  WCI  10
Newark/Liberty PTSUNNY   26   6  42 W23G32    29.57S WCI  11
Teterboro      CLOUDY    23   8  52 W14G29    29.57R WCI  11
$$

NYZ177-179-078>081-131600-
LONG ISLAND NEW YORK

CITY           SKY/WX    TMP DP  RH WIND       PRES   REMARKS
Jones Beach      N/A    N/A N/A N/A W36G44      N/A
Wantagh          N/A     25   5  42 W17G32      N/A  WCI  11
Matinecock PT    N/A    N/A N/A N/A W38G46      N/A
Farmingdale    CLOUDY    23   4  44 W13G32    29.54R WCI  11
MacArthur/ISP  PTSUNNY   23   4  44 W25G37    29.51S WCI   7
Shirley        CLOUDY    23   6  48 W28G35    29.51R WCI   6
Mt Sinai Harb    N/A    N/A N/A N/A W18G30      N/A
Westhampton    PTSUNNY   25   5  42 W26G36    29.50S WCI   9
East Hampton   CLOUDY    23   8  52 W18G26    29.47R WCI   9
Southold         N/A     25  10  54 W14         N/A  WCI  13
Montauk          N/A     26  11  52 W18G35    29.45R WCI  13
$$

NYZ052-065-067-131600-
HUDSON VALLEY

CITY           SKY/WX    TMP DP  RH WIND       PRES   REMARKS
White Plains   PTSUNNY   19   9  65 NW12      29.50R WCI   7
Larchmont Harb   N/A    N/A N/A N/A W21G30      N/A
Croton On Huds   N/A    N/A N/A N/A W26G35      N/A
Somers           N/A     19   5  53 W10G22      N/A  WCI   8
Brewster         N/A     19   3  49 W14         N/A  WCI   6
Newburgh       MOSUNNY   19   7  58 W20G32    29.51R WCI   4
Montgomery     CLOUDY    20   5  52 W21G30    29.51R WCI   4
Otisville        N/A     18   7  62 W12G24      N/A  WCI   5
Warwick          N/A     19   9  63 W15         N/A  WCI   5
Suffern          N/A     19   5  53 W17G31      N/A  WCI   4
Poughkeepsie   CLOUDY    20   4  50 W10G23    29.51R WCI   9
Albany         PTSUNNY   18   5  57 W22G33    29.45R WCI   1
$$

NJZ001-105-106-008-010-013-015-019>022-104-131600-
NEW JERSEY

CITY           SKY/WX    TMP DP  RH WIND       PRES   REMARKS
Newark/Liberty PTSUNNY   26   6  42 W23G32    29.57S WCI  11
Teterboro      CLOUDY    23   8  52 W14G29    29.57R WCI  11
Caldwell       CLOUDY    22   7  52 W17G26    29.57S WCI   8
Somerville     PTSUNNY   25   7  46 W9G32     29.58S WCI  15
Linden         FAIR      25   6  44 NW26G39   29.59R WCI   9
Perth Amboy      N/A    N/A N/A N/A W29G39      N/A
Sussex         CLOUDY    21   9  59 W13G21    29.53R WCI   9
Andover        NOT AVBL
Trenton        MOSUNNY   26   5  40 W22G35    29.62R WCI  12
Millville      MOSUNNY   26   8  46 W23G38    29.74R WCI  11
Atlantic City  NOT AVBL
Wrightstown    MOSUNNY   26   5  40 W26G37    29.62R WCI  11
Toms River     MOSUNNY   27   8  44 W29G37    29.64R WCI  11
Belmar         MOSUNNY   25   7  46 W20G40    29.60S WCI  11
$$

PAZ047>061-062-071-131600-
EASTERN PENNSYLVANIA

CITY           SKY/WX    TMP DP  RH WIND       PRES   REMARKS
Philadelphia   MOSUNNY   26   4  38 W26G38    29.70S WCI  10
Allentown      MOSUNNY   26   7  44 W17G36    29.62R WCI  13
Scranton       CLOUDY    20   5  52 NW17G33   29.57R WCI   5
$$

CTZ002-004>006-009-010-012-RIZ004-006-007-MAZ004-011-015-131600-
SOUTHERN NEW ENGLAND
 IN CT

CITY           SKY/WX    TMP DP  RH WIND       PRES   REMARKS
Bradley INTL   MOSUNNY   20   9  62 W21G32    29.41R WCI   4
Hartford       CLOUDY    22   8  55 W16G25    29.45R WCI   8
Danbury        PTSUNNY   20   3  48 NW18G32   29.48R WCI   5
Wtrbury/Oxford PTSUNNY   18   5  57 W10G25    29.43R WCI   6
Norwalk Harbor   N/A    N/A N/A N/A W29G37      N/A
Bridgeport     PTSUNNY   24   3  40 W22G37    29.50R WCI   9
Meriden        MOSUNNY   21   5  50 W16G28    29.46S WCI   7
New Haven      CLOUDY    23   6  48 W16G28    29.48S WCI  10
Chester        FAIR      21   3  45 W10G29    29.42S WCI  10
Groton         SUNNY     24   6  46 W24G31    29.43R WCI   8
Wilimantic     CLOUDY    21   8  57 W20G32    29.41R WCI   6

 IN RI

CITY           SKY/WX    TMP DP  RH WIND       PRES   REMARKS
Providence     CLOUDY    24   8  50 W25G35    29.37R WCI   8
Block Island   CLOUDY    24  12  60 W24G33    29.41S WCI   8
Westerly       SUNNY     25   7  46 NW9G24    29.42R WCI  15
 IN MA

CITY           SKY/WX    TMP DP  RH WIND       PRES   REMARKS
Boston         MOSUNNY   24  10  55 MISG      29.29R
Worcester      FLURRIES  16   5  62 W22G33    29.27R WCI  -2
Westfield      CLOUDY    19  10  68 W16G22    29.38S WCI   4
Provincetown   CLOUDY    24  15  68 W20G33    29.28R WCI  10
Nantucket      CLOUDY    26  14  60 W22G37    29.32S WCI  12
$$

ANZ330-335-338-340-345-350-353-355-131600-
COASTAL MARINE OBSERVATIONS


STATION/POSITION TIME  SKY/WX   TEMP    WIND        PRES    VSBY  WAVE
                                AIR SEA DIR/SP/G                  HT/PER
                 (UTC)          (F)     (DEG/KT/KT) (MB)    (MI)  (FT/S)
NY HARB ENTRANCE 1350            27 51  280/ 31/ 41  999.5          6/ 5
20 S FIRE ISLAND 1350            27 52  290/ 35/ 43  999.1         10/ 7
GREAT SOUTH BAY  1400            24 45  280/ 25/ 31   N/A
HUDSON CANYON    1350            30 55  290/ 33/ 41 1000.0         15/ 9
KINGS POINT      1430            23 43  330/ 22/ 29 1001.8
EXECUTION ROCKS  1430            26     260/ 21/ 31   N/A
WESTERN LI SOUND NOT AVBL
CENTRAL LI SOUND NOT AVBL
ROBBINS REEF     1430            23     290/ 26/ 34 1001.9
$$


>>>>>>>>>>>>>>>>>>>>>>>>>>>> KEY <<<<<<<<<<<<<<<<<<<<<<<<<<<
>                                                          <
>     SKY/WX - Sky Condition/Present Weather               <
>     TMP    - Temperature in Fahrenheit                   <
>     DP     - Dew Point in Fahrenheit                     <
>     RH     - Relative Humidity in Percent                <
>     WIND   - Direction (from) and Speed in MPH           <
>     PRES   - Mean Sea Level Pressure (inches of Hg)      <
>     WCI    - Wind Chill Index                            <
>     VSB    - VISIBILITY IN MILES                         <
>     HX     - HEAT INDEX                                  <
>     TC     - TEMPERATURE IN CELSIUS                      <
>     VRB    - VARIABLE WIND DIRECTION                     <
>                                                          <
>>>>>>>>>>>>>>>>>>>>>>>>>>>> KEY <<<<<<<<<<<<<<<<<<<<<<<<<<<




USA.gov is the U.S. government's official web portal to all federal, state and local government web resources and services.